Location: *
(37.5724°S, 58.0067°E)
Time: 16:27:35
(UTC+00:00)

X-37B - Visible Passes

Search period start: 25 November 2020 00:00
Search period end: 05 December 2020 00:00
Orbit: 384 x 389 km, 45.0° (Epoch: 12 November)

Date Brightness Start Highest point End Pass type
(mag) Time Alt. Az. Time Alt. Az. Time Alt. Az.
29 Nov 3.3 00:00:13 10° NNE 00:01:15 11° NE 00:02:18 10° ENE visible
30 Nov 2.5 23:38:12 12° N 23:40:29 22° NE 23:43:03 10° E visible
01 Dec 3.3 22:42:13 11° NE 22:42:13 11° NE 22:43:09 10° ENE visible
02 Dec 1.3 23:18:26 26° NNW 23:19:48 42° NE 23:22:53 10° ESE visible
03 Dec 2.8 22:22:20 19° ENE 22:22:20 19° ENE 22:23:55 10° E visible
03 Dec 1.2 23:54:38 10° WNW 23:57:47 54° SSW 00:01:00 10° SE visible
04 Dec 0.5 22:58:25 49° NW 22:59:11 85° NNE 23:02:26 10° ESE visible
